星链-4133 (STARLINK-4133 )

导读

STARLINK-4133是美国太空探索技术公司(SpaceX)星链(Starlink)卫星互联网项目的卫星,于2022年7月24日发射入轨,属于星链星座的组成部分。星链计划旨在构建全球卫星互联网星座,为全球偏远地区、海洋等网络覆盖薄弱区域提供高速互联网服务,该卫星加入后进一步扩充了星链星座的服务覆盖能力。

基本信息
目录编号:
53253
目录名称:
STARLINK-4133
国际标识:
2022-086M
轨道中心:
EARTH
卫星名称:
星链-4133
卫星全名:
星链-4133 (STARLINK-4133 )
卫星状态:
在轨 (已飞行1424 天)
发射日期:
2022-07-24 UTC
国别 :
美国 (US)
星等 :
--
轨道信息
数据来源 国际轨道数据 AOE轨道数据
星历时间 2026-06-17T09:24:33+0800
10小时前
查看轨道信息
2026-06-14T02:00:00+0800
3天前
查看轨道信息
半长轴 6917.932km 6917.904km
偏心率 0.0001451 0.0001233
轨道倾角 53.160° 53.159°
近地点辐角 94.315° 96.773°
升交点赤经 107.944° 122.815°
平近点角 265.801° 281.327°
近地点 538.791km 538.914km
远地点 540.799km 540.62km
周期 95.439分钟 95.438分钟
每日圈数 15.088232 15.088325
详细信息
固有亮度:
5
最大亮度:
2.5
卫星平台:
Starlink v1.5
覆盖范围:
全球
运营商:
太空探索技术公司
运营商所在国:
美国
制造商(研发单位):
太空探索技术公司
制造商所在国:
美国
使用方式:
暂无
卫星简介
星链(Starlink)计划是由太空探索技术公司(SpaceX)提出的一个巨型低轨卫星互联网星座项目,计划在2019年至2024年间在太空搭建由约1.2万颗卫星组成的“星链”网络,其中1584颗将部署在地球上空550千米处的近地轨道,并从2020年开始工作。该卫星仍在工作。
2D轨道图
3D轨道图
轨道高度分析图
轨道倾角分析图
轨道综合分析图
查看轨道综合分析图